Temperature
17 18 19 19 19 18 17 17 17 18 18 18 17 17 17 17 18 18 18 18 18 19 19 19 19 19 19 19 19 18 18 18 18 18 17 17 17 17 17 17 16 16 16 16
17 18 18 19 19 19 18 18 18 18 18 17 16 17 17 17 17 17 17 18 18 19 19 19 19 19 19 19 18 18 18 18 18 18 17 17 17 17 17 16 16 16 16 16
16 17 18 17 18 18 18 18 18 18 18 16 16 15 15 16 16 17 17 17 18 18 18 19 19 19 19 18 18 18 18 18 18 18 17 17 17 17 17 16 16 16 16 16
14 16 16 17 17 18 18 18 17 17 17 16 15 15 15 15 16 16 17 17 17 18 18 18 18 18 18 18 18 18 18 17 17 17 17 17 17 16 16 16 16 16 16 16
13 15 15 17 17 17 17 17 17 17 16 15 15 14 14 14 15 15 16 16 17 17 17 18 18 18 18 18 18 17 17 17 17 17 17 16 16 16 16 16 16 16 16 15
13 15 15 16 17 17 17 16 16 16 15 15 15 15 14 13 14 14 15 16 16 16 17 17 17 17 17 17 17 16 16 16 16 16 16 16 16 16 16 15 15 15 15 15
13 14 15 16 16 16 16 16 15 15 15 15 14 14 13 13 13 14 14 15 15 16 16 16 16 16 16 16 15 15 15 15 15 15 15 15 15 15 15 15 14 14 14 14
13 14 14 15 15 15 15 15 15 15 15 14 13 13 13 13 13 13 14 14 14 14 14 14 15 15 15 15 14 14 14 15 15 15 14 14 14 14 14 14 14 14 13 13
12 13 13 14 14 15 15 14 14 14 14 14 12 12 12 12 13 13 13 13 13 14 13 13 13 14 14 13 13 13 14 14 14 14 13 13 13 13 13 13 13 13 13 12
12 12 13 13 14 14 14 14 14 14 13 13 12 12 12 12 12 12 12 13 13 13 12 12 12 12 12 12 12 13 13 13 13 12 12 12 12 12 12 12 12 12 12 12
12 12 12 13 13 13 13 13 13 13 13 13 12 12 12 12 12 12 12 12 12 12 12 11 12 12 12 12 12 12 12 12 12 12 12 12 11 11 11 11 11 11 11 11
12 12 12 12 12 13 13 12 12 12 12 12 12 12 12 12 11 11 11 11 11 11 11 11 11 11 11 11 11 11 11 11 11 11 11 11 11 11 11 11 10 10 10 10
12 12 12 11 12 12 12 12 12 12 12 12 11 12 11 11 11 11 11 11 11 11 11 10 10 10 10 10 10 11 10 10 10 10 10 10 10 10 10 10 10 10 10 10
12 12 11 11 11 12 12 12 12 12 11 11 11 11 11 11 11 11 11 10 10 10 10 10 10 10 10 10 10 10 10 10 9 9 9 9 9 9 9 9 9 9 9 9
11 12 11 11 11 11 11 11 11 11 11 11 11 11 11 11 10 10 10 10 10 10 10 10 10 9 9 9 9 9 9 9 9 9 9 9 9 8 8 8 8 8 8 8
11 11 11 11 11 11 11 11 11 10 11 11 11 11 10 10 10 10 10 10 10 10 9 9 9 9 9 9 9 9 8 8 8 8 8 8 8 8 7 7 7 7 7 7
11 11 11 11 11 11 11 11 11 11 11 11 10 10 10 10 10 10 10 9 9 9 9 9 8 8 8 8 8 8 8 8 8 7 7 7 7 7 7 6 6 6 6 6
12 11 11 11 11 11 11 11 11 11 11 10 10 10 10 10 10 9 9 9 9 8 8 8 8 8 8 8 7 7 7 7 7 7 6 6 6 6 6 5 5 5 5 5
11 11 11 11 11 11 11 11 11 11 10 10 10 10 10 10 9 9 9 9 8 8 8 7 7 7 7 7 7 7 6 6 6 6 6 5 5 5 5 5 4 4 4 4
11 11 11 11 11 11 11 11 10 10 10 10 10 10 9 9 9 9 8 8 8 7 7 7 7 7 6 6 6 6 6 5 5 5 5 4 4 4 4 4 3 3 3 3
11 11 11 11 11 11 11 10 10 10 10 10 10 9 9 9 8 8 8 8 7 7 7 7 6 6 6 6 6 5 5 5 4 4 4 4 4 3 3 3 3 2 2 2
11 11 11 11 11 10 10 10 10 10 10 9 9 9 9 8 8 8 8 7 7 7 6 6 6 6 5 5 5 5 4 4 4 3 3 3 3 3 2 2 2 2 2 2
11 11 10 10 10 10 10 10 10 9 9 9 9 8 8 8 8 7 7 7 7 6 6 6 5 5 5 5 4 4 4 3 3 3 3 2 2 2 2 2 1 1 1 1
10 10 10 10 10 10 10 9 9 9 9 8 8 8 8 7 7 7 7 6 6 6 6 5 5 5 4 4 4 4 3 3 3 2 2 2 2 2 1 1 1 1 1 1
10 10 10 10 10 9 9 9 8 8 8 8 7 7 7 7 7 6 6 6 6 5 5 5 4 4 4 4 3 3 3 2 2 2 2 1 1 1 1 1 1 1 1 1
10 9 9 9 9 9 8 8 8 8 7 7 7 6 6 6 6 6 6 5 5 5 4 4 4 3 3 3 3 2 2 2 2 2 1 1 1 1 1 0 0 0 0 0
9 9 9 9 8 8 8 8 8 7 7 7 6 6 6 6 5 5 5 5 4 4 4 3 3 3 2 2 2 2 2 1 1 1 1 1 0 0 0 0 0 -0 -0 -0
Wind_Speed
7 7 5 6 6 7 8 8 9 8 7 7 3 2 3 4 5 6 5 4 4 5 5 5 5 5 6 6 6 6 7 7 7 6 6 6 7 7 7 8 9 9 9 8
4 6 7 7 8 8 8 7 7 5 6 4 2 3 4 5 7 7 6 5 4 4 4 4 5 5 5 5 5 6 7 7 6 5 5 5 6 7 7 7 7 7 9 9
5 4 2 7 9 10 7 6 8 9 7 6 4 5 4 5 6 6 6 5 4 3 3 3 3 4 4 4 5 6 6 5 5 5 5 5 5 5 6 7 7 7 8 8
3 1 8 8 4 6 7 6 6 5 6 8 8 7 7 5 6 6 6 6 5 4 3 2 3 3 4 5 5 5 5 4 4 4 4 4 4 4 5 4 5 6 6 7
3 4 6 6 3 3 4 4 5 8 9 9 11 9 7 7 8 7 6 6 6 5 5 5 4 4 6 6 5 5 4 3 3 4 3 3 3 3 3 3 4 4 3 4
3 4 6 6 3 1 2 3 3 8 10 10 8 5 3 6 9 9 9 8 8 8 9 9 6 6 9 8 7 5 4 3 3 3 3 3 2 2 1 2 1 1 1 1
4 5 6 4 4 0 4 5 3 6 8 7 4 6 9 10 10 10 9 10 10 11 11 9 8 9 11 9 7 5 6 6 5 4 3 2 2 2 2 2 2 1 1 1
3 4 6 4 2 3 4 1 4 5 7 11 13 15 13 12 11 11 11 12 11 12 12 10 9 10 11 9 6 6 7 8 7 6 5 4 4 4 3 3 2 1 1 1
5 5 4 3 3 3 1 3 4 6 11 16 16 14 13 13 12 11 11 11 10 12 12 11 10 11 11 6 6 8 9 8 7 8 7 6 5 4 4 3 2 2 2 1
3 4 3 3 2 2 4 5 8 11 14 16 17 16 15 13 12 11 10 10 10 12 13 11 10 11 9 7 7 9 9 8 7 7 7 7 6 5 4 4 3 2 2 2
3 3 3 4 4 5 8 10 12 13 14 15 18 16 14 13 11 10 10 9 10 11 11 10 9 10 9 8 8 10 9 8 7 7 6 6 6 5 4 3 2 2 1 1
2 2 0 2 4 8 11 11 13 16 15 13 15 15 14 13 10 10 9 9 10 10 10 9 9 10 9 8 8 9 8 7 6 5 5 5 5 6 8 7 8 7 5 4
1 2 4 5 8 9 11 12 13 15 16 15 13 14 14 11 9 10 9 9 9 9 8 8 9 9 8 8 8 9 7 6 5 5 5 5 5 5 5 7 10 10 9 8
4 6 6 6 8 10 13 15 16 16 15 14 13 13 12 11 10 10 9 7 8 8 8 8 9 8 7 6 8 8 7 7 6 5 4 4 4 4 4 4 5 5 7 8
7 7 8 10 11 12 14 16 17 16 15 13 12 12 12 12 10 8 7 7 8 9 8 8 8 7 6 6 7 7 6 5 4 4 4 4 4 4 4 4 3 3 4 5
10 12 13 14 14 13 14 15 16 14 13 12 12 11 10 10 10 9 7 7 8 8 6 7 6 5 5 6 6 5 5 7 6 4 4 4 4 4 4 4 4 4 4 5
10 10 12 13 13 13 12 12 13 12 12 12 11 10 10 10 10 9 8 7 7 6 5 5 4 4 5 6 5 4 4 5 7 6 5 4 4 4 3 3 3 4 4 5
9 9 10 12 12 12 11 11 11 11 10 10 10 10 10 9 8 6 6 6 7 7 6 5 4 5 6 6 5 4 4 4 4 4 4 4 4 4 3 3 3 4 4 5
12 12 12 12 11 11 10 10 9 9 9 9 9 9 8 7 6 6 5 6 6 5 4 5 7 6 6 6 5 4 4 4 4 4 4 4 4 4 4 4 4 4 5 5
12 12 12 12 11 10 10 9 9 8 7 8 9 9 8 6 6 6 6 5 2 1 1 3 4 4 4 4 5 4 4 4 4 3 4 4 4 4 4 4 4 5 5 5
12 12 12 11 10 9 9 8 9 8 7 7 8 7 6 5 4 4 4 3 2 2 2 3 3 2 3 3 5 3 3 3 3 3 3 3 3 4 4 4 5 5 5 5
10 11 11 10 10 9 7 7 8 8 7 7 7 6 6 4 3 2 2 1 0 1 2 2 2 3 3 4 3 3 3 3 3 3 3 3 3 3 4 4 5 5 5 5
8 8 9 9 8 8 7 7 7 7 7 6 5 4 4 2 2 2 0 1 1 2 2 2 3 5 5 4 3 3 4 4 3 3 3 3 3 3 4 4 5 5 6 6
8 7 7 7 8 8 7 6 6 6 6 5 4 3 3 2 1 1 0 1 2 3 3 3 5 6 5 3 3 3 3 3 3 3 3 3 3 4 4 4 5 5 5 6
7 7 7 8 7 5 5 5 6 5 5 4 4 4 3 2 1 1 2 3 4 5 4 4 6 6 4 3 3 3 3 3 3 3 3 3 3 4 4 4 5 5 5 5
6 5 4 4 4 4 3 4 3 3 3 3 2 2 2 2 3 3 3 4 5 5 4 3 3 4 4 3 3 3 3 3 3 3 3 3 3 3 4 4 6 5 5 5
6 5 4 4 4 3 3 4 3 2 2 2 2 2 2 3 3 3 3 3 3 4 3 3 3 3 3 3 3 3 3 3 3 3 3 3 3 3 4 4 4 4 5 6
Wind_Direction
234 244 229 230 234 196 193 196 198 227 225 252 238 199 170 152 130 123 124 138 161 166 162 159 161 168 178 178 173 170 170 180 195 194 190 191 196 198 198 200 207 203 204 208
257 252 235 244 245 225 219 209 215 228 250 230 150 122 116 127 131 126 128 140 152 155 156 169 179 177 178 181 172 166 174 186 184 173 176 191 202 199 199 206 209 204 207 208
241 258 263 246 229 220 214 206 188 207 217 155 137 124 115 114 118 124 122 121 119 126 148 170 179 176 177 177 156 156 170 173 165 169 183 197 200 198 202 207 207 210 214 211
218 186 230 244 238 216 209 221 199 185 164 156 139 109 83 81 104 102 98 99 98 101 104 106 113 128 133 123 130 139 143 147 152 167 189 192 188 198 206 203 203 211 216 216
173 221 265 283 264 206 193 239 190 166 152 138 127 100 68 60 79 87 84 83 82 85 86 83 91 112 112 108 114 118 126 136 147 160 163 161 185 199 200 201 210 210 202 209
180 212 236 250 278 283 136 250 180 157 157 151 143 127 119 86 84 81 74 75 78 79 75 70 62 91 99 95 94 92 92 95 97 110 121 138 171 162 159 181 199 184 169 186
209 232 261 270 291 349 187 226 157 153 154 149 136 125 117 102 86 79 75 72 72 70 66 58 58 80 85 82 77 74 77 77 72 75 88 91 87 81 91 101 100 98 90 50
195 218 253 315 328 208 221 141 119 124 127 117 111 110 108 99 90 82 76 71 71 72 64 52 54 75 79 73 67 73 75 72 63 57 61 64 70 67 70 82 83 67 61 20
208 232 274 299 255 261 165 126 118 120 124 123 118 113 107 99 92 84 80 75 73 76 68 54 50 65 72 54 59 71 69 63 58 56 54 54 62 63 63 62 66 54 59 41
262 280 305 335 4 63 101 111 111 117 121 120 117 115 108 101 95 88 80 76 75 76 71 59 50 56 58 51 62 71 67 58 54 55 51 49 52 55 61 56 53 52 60 47
266 293 4 26 52 94 101 103 105 104 110 116 116 113 110 104 98 93 86 77 77 79 74 61 53 50 43 45 63 68 63 55 50 48 48 46 48 48 48 44 47 62 40 41
259 295 1 28 64 95 105 108 111 112 106 102 109 111 107 103 99 95 89 83 80 76 73 63 56 48 38 40 59 68 62 51 48 47 47 49 48 44 42 44 42 54 55 53
197 84 90 82 78 89 101 101 104 107 109 106 103 106 106 102 97 94 90 86 83 78 74 68 61 48 34 40 57 64 62 54 49 49 47 45 45 49 36 26 35 40 37 37
99 100 84 75 83 95 103 102 99 97 97 101 103 102 103 100 95 92 89 87 85 80 71 66 62 45 26 45 61 61 58 57 56 50 45 44 46 46 47 40 23 14 17 20
66 87 101 97 90 94 101 103 100 97 97 95 97 101 102 100 97 92 88 90 84 75 66 64 59 35 21 49 61 58 57 54 52 51 49 49 49 50 47 41 32 11 4 5
91 90 93 93 93 94 97 101 102 103 103 101 99 99 100 100 96 87 78 82 86 78 64 62 52 22 26 50 58 53 50 56 58 53 46 43 42 41 36 30 23 15 6 355
106 101 102 100 97 94 94 99 105 106 104 103 103 102 99 94 86 78 71 73 85 82 68 62 45 31 44 52 60 58 53 52 55 56 49 41 37 32 25 20 14 6 356 352
98 105 110 114 113 107 101 99 102 103 105 107 104 99 98 99 98 93 89 85 78 64 48 39 42 49 49 51 58 60 60 56 52 50 44 40 33 27 23 17 9 2 352 352
97 99 100 103 106 106 104 103 102 102 104 106 101 97 96 98 101 98 94 88 82 68 25 24 44 51 46 44 59 61 64 60 51 42 38 33 30 26 21 15 6 358 350 348
96 97 97 96 94 99 102 101 101 98 98 104 102 97 91 89 93 94 89 78 70 79 19 44 52 48 40 44 63 67 67 62 51 35 27 22 17 13 12 8 2 353 346 342
102 100 98 98 92 88 94 100 102 98 93 99 104 106 104 95 94 98 98 83 4 31 58 59 56 49 42 54 61 65 63 58 49 37 26 16 10 7 5 359 352 346 343 340
100 101 100 99 95 86 77 85 94 96 91 90 94 100 100 94 90 81 79 149 251 93 81 64 54 56 62 62 59 57 53 48 40 34 26 18 12 5 1 358 352 348 345 341
97 99 98 97 98 93 79 75 83 94 98 101 107 114 122 133 138 127 33 333 46 100 86 74 70 70 65 61 62 59 52 43 36 29 23 17 12 7 1 356 353 351 349 347
94 94 96 97 95 91 84 74 78 86 93 92 91 95 104 102 61 46 130 110 91 88 77 72 73 71 70 68 67 62 53 43 35 32 28 21 15 8 1 357 356 356 352 349
95 92 95 98 98 99 101 93 83 77 76 71 61 53 51 72 100 67 61 72 82 79 70 65 67 70 71 68 63 59 52 43 38 37 32 24 15 10 7 5 2 357 352 352
89 93 94 101 114 122 120 110 103 96 90 77 50 35 35 42 59 67 75 82 84 79 74 65 60 64 65 64 61 53 40 31 36 39 31 22 16 15 11 7 4 1 356 352
82 81 84 78 72 89 106 109 110 104 101 105 74 34 42 54 62 70 78 80 80 77 73 66 63 65 67 67 63 52 42 36 33 30 26 23 19 14 10 6 3 359 357 355
Height
1465 1460 1460 1460 1459 1461 1466 1467 1472 1465 1462 1454 1451 1450 1451 1452 1453 1456 1458 1460 1462 1465 1467 1470 1474 1478 1481 1484 1488 1491 1495 1498 1501 1504 1507 1510 1513 1516 1519 1521 1523 1525 1527 1529
1464 1458 1457 1458 1455 1455 1457 1457 1459 1457 1457 1449 1449 1449 1450 1451 1453 1455 1457 1459 1462 1464 1467 1470 1473 1476 1479 1482 1486 1489 1492 1495 1498 1501 1504 1507 1510 1512 1514 1517 1519 1520 1522 1523
1471 1460 1459 1462 1452 1450 1449 1447 1449 1453 1449 1447 1449 1449 1450 1451 1453 1455 1456 1458 1461 1463 1466 1469 1472 1475 1477 1481 1484 1486 1489 1492 1495 1498 1501 1503 1506 1508 1510 1512 1514 1515 1517 1518
1471 1467 1473 1453 1441 1439 1441 1441 1441 1441 1442 1445 1447 1450 1452 1453 1454 1456 1457 1459 1461 1463 1466 1469 1471 1474 1477 1480 1482 1485 1487 1490 1493 1495 1498 1500 1502 1503 1505 1507 1509 1510 1511 1513
1472 1471 1462 1448 1440 1439 1441 1442 1438 1440 1442 1445 1448 1450 1454 1455 1455 1457 1459 1460 1462 1464 1466 1468 1471 1473 1476 1478 1481 1483 1486 1488 1490 1493 1495 1497 1498 1499 1501 1503 1504 1505 1506 1507
1469 1467 1465 1449 1438 1436 1439 1444 1437 1438 1441 1445 1446 1452 1457 1457 1458 1459 1460 1461 1462 1464 1466 1468 1471 1473 1474 1477 1479 1482 1484 1487 1489 1491 1492 1494 1495 1496 1498 1499 1500 1501 1501 1502
1466 1464 1454 1442 1438 1438 1448 1443 1436 1437 1440 1443 1446 1449 1456 1458 1460 1461 1462 1463 1465 1466 1467 1469 1472 1474 1475 1477 1480 1482 1484 1486 1488 1489 1491 1492 1493 1493 1495 1496 1497 1497 1497 1498
1463 1463 1457 1440 1438 1440 1439 1435 1435 1438 1441 1444 1448 1451 1456 1459 1462 1464 1465 1467 1468 1469 1470 1473 1475 1476 1477 1479 1482 1484 1485 1486 1487 1488 1489 1490 1491 1491 1493 1494 1495 1495 1495 1496
1456 1454 1444 1440 1438 1437 1436 1435 1436 1439 1442 1444 1449 1454 1458 1461 1464 1467 1469 1471 1473 1474 1475 1477 1478 1479 1480 1483 1485 1485 1486 1487 1488 1489 1490 1490 1491 1491 1492 1493 1493 1493 1494 1494
1450 1445 1442 1439 1437 1436 1436 1437 1439 1441 1444 1447 1451 1456 1460 1464 1468 1471 1474 1475 1477 1479 1480 1481 1483 1483 1484 1486 1487 1487 1488 1489 1489 1490 1491 1491 1491 1492 1492 1492 1492 1493 1493 1492
1448 1444 1441 1439 1438 1438 1439 1441 1443 1446 1449 1452 1455 1460 1464 1468 1472 1476 1478 1480 1482 1483 1484 1486 1487 1487 1488 1489 1489 1490 1490 1491 1491 1492 1492 1492 1492 1492 1492 1492 1492 1493 1492 1492
1447 1444 1443 1443 1441 1441 1442 1444 1447 1450 1454 1458 1461 1464 1468 1472 1477 1480 1483 1485 1486 1487 1488 1490 1491 1491 1492 1493 1493 1493 1493 1493 1493 1494 1494 1494 1494 1494 1493 1493 1493 1492 1492 1491
1445 1444 1443 1444 1444 1445 1446 1449 1452 1455 1458 1463 1467 1470 1474 1478 1482 1485 1488 1489 1490 1492 1493 1494 1494 1495 1495 1496 1495 1495 1495 1495 1495 1495 1495 1495 1494 1494 1494 1493 1493 1492 1491 1490
1446 1446 1447 1448 1448 1450 1451 1454 1458 1461 1465 1469 1472 1476 1480 1483 1487 1489 1492 1493 1495 1496 1497 1497 1498 1498 1499 1499 1498 1498 1497 1497 1497 1497 1496 1496 1495 1494 1493 1493 1492 1491 1490 1489
1449 1449 1450 1452 1453 1455 1458 1460 1463 1467 1471 1476 1479 1482 1486 1488 1491 1493 1495 1497 1498 1499 1500 1500 1500 1501 1501 1501 1500 1500 1499 1498 1498 1497 1497 1496 1495 1494 1493 1492 1491 1490 1489 1488
1453 1454 1455 1457 1459 1462 1464 1467 1470 1474 1478 1481 1484 1488 1490 1492 1494 1497 1499 1500 1501 1502 1502 1503 1503 1503 1503 1502 1501 1501 1500 1499 1499 1498 1497 1496 1495 1494 1493 1491 1490 1489 1488 1487
1456 1459 1461 1463 1465 1468 1471 1474 1477 1480 1483 1486 1489 1492 1494 1496 1498 1500 1502 1503 1504 1504 1504 1504 1504 1504 1504 1503 1502 1501 1501 1500 1499 1498 1497 1496 1495 1493 1492 1490 1489 1488 1486 1485
1461 1464 1466 1468 1471 1474 1477 1480 1483 1486 1488 1491 1494 1496 1498 1500 1501 1503 1504 1505 1505 1506 1506 1506 1505 1505 1504 1503 1503 1502 1501 1500 1499 1498 1497 1495 1494 1492 1491 1489 1487 1486 1484 1483
1467 1469 1472 1475 1477 1480 1483 1486 1488 1491 1493 1495 1497 1499 1501 1502 1504 1505 1506 1506 1507 1507 1507 1506 1506 1505 1504 1503 1502 1502 1500 1499 1498 1497 1496 1494 1493 1491 1489 1487 1486 1484 1482 1480
1472 1475 1477 1480 1483 1485 1488 1490 1492 1495 1497 1498 1500 1502 1503 1505 1506 1507 1507 1507 1508 1507 1507 1507 1506 1505 1504 1504 1503 1501 1500 1499 1498 1496 1495 1493 1491 1489 1487 1485 1484 1482 1480 1478
1477 1480 1482 1485 1487 1490 1492 1494 1496 1498 1500 1502 1503 1504 1505 1506 1507 1508 1508 1508 1508 1508 1508 1507 1506 1505 1504 1503 1502 1500 1499 1498 1496 1495 1493 1492 1490 1488 1486 1484 1482 1480 1477 1475
1482 1484 1487 1489 1491 1494 1496 1498 1499 1501 1502 1504 1505 1506 1507 1507 1508 1508 1508 1508 1508 1508 1507 1506 1506 1505 1504 1502 1501 1500 1498 1497 1495 1494 1492 1490 1488 1486 1484 1482 1480 1478 1475 1473
1486 1489 1491 1493 1495 1497 1499 1500 1502 1503 1504 1505 1506 1507 1507 1508 1508 1508 1508 1508 1507 1507 1506 1505 1505 1504 1503 1501 1500 1499 1497 1496 1494 1493 1491 1489 1487 1485 1483 1481 1479 1476 1474 1471
1490 1492 1494 1496 1498 1499 1501 1502 1503 1504 1505 1506 1507 1507 1507 1507 1507 1507 1507 1506 1506 1505 1504 1504 1503 1502 1501 1500 1499 1497 1496 1495 1493 1492 1490 1488 1486 1485 1482 1480 1478 1475 1472 1470
1493 1495 1497 1498 1500 1501 1502 1503 1504 1505 1506 1506 1506 1507 1507 1506 1506 1506 1506 1505 1505 1504 1503 1503 1502 1501 1500 1499 1498 1497 1495 1494 1492 1491 1489 1488 1486 1484 1482 1479 1477 1474 1471 1469
1496 1498 1499 1500 1501 1503 1504 1504 1505 1506 1506 1506 1506 1506 1506 1506 1505 1505 1505 1504 1503 1503 1502 1502 1501 1500 1499 1498 1497 1496 1495 1493 1492 1490 1489 1487 1485 1483 1481 1479 1476 1474 1471 1468
1498 1499 1500 1502 1503 1504 1504 1505 1505 1505 1505 1505 1505 1505 1505 1505 1504 1504 1503 1503 1502 1502 1501 1501 1500 1499 1499 1498 1497 1496 1495 1493 1492 1490 1489 1487 1485 1483 1481 1479 1476 1474 1471 1468